OpenBCM V1.08-5-g2f4a (Linux)

Packet Radio Mailbox

IZ3LSV

[San Dona' di P. JN]

 Login: GUEST





  
NC8Q   > KEP      09.03.24 18:30l 71 Lines 2837 Bytes #999 (0) @ WW
BID : ARLK018
Read: GUEST
Subj: ARLK018 Keplerian data
Path: IZ3LSV<IK7IJR<IW2OHX<M0IPU<CT1EBQ<K4WOF<PY2BIL<LU9DCE<GB7YEW<KE0GB<
      W9GM<NC8Q
Sent: 240305/2302Z 20239@NC8Q.#DAY.OH.USA.NOAM LinBPQ6.0.24


ZCZC SK18
QST de W1AW  
Keplerian Bulletin 18  ARLK018
>From ARRL Headquarters
Newington, CT  March 5, 2024
To all radio amateurs 

SB KEP ARL ARLK018
ARLK018 Keplerian data

Special thanks to AMSAT-NA (AMSAT.ORG) for the following Keplerian
data.

Decode 2-line elsets with the following key:
1 AAAAAU 00  0  0 BBBBB.BBBBBBBB  .CCCCCCCC  00000-0  00000-0 0  DDDZ
2 AAAAA EEE.EEEE FFF.FFFF GGGGGGG HHH.HHHH III.IIII JJ.JJJJJJJJKKKKKZ
KEY: A-CATALOGNUM B-EPOCHTIME C-DECAY D-ELSETNUM E-INCLINATION F-RAAN
G-ECCENTRICITY H-ARGPERIGEE I-MNANOM J-MNMOTION K-ORBITNUM Z-CHECKSUM

0 AO-07
1 07530U 74089B   24065.58082931 -.00000018  00000-0  18056-3 0  9999
2 07530 101.9749  59.2739 0011892 282.6408 195.9443 12.53672812256054
0 ISS
1 25544U 98067A   24065.64045318  .00016378  00000-0  29788-3 0  9990
2 25544  51.6409 108.5681 0005857 329.5475 174.3469 15.49648070442497
0 SO-50
1 27607U 02058C   24065.59157123  .00002582  00000-0  36844-3 0  9992
2 27607  64.5552 179.8293 0036877 158.2143 202.0539 14.78434086141007
0 AO-73
1 39444U 13066AE  24065.47181980  .00005656  00000-0  57550-3 0  9992
2 39444  97.7076  26.8535 0051412 124.1803 236.4305 14.90150634554654
0 IO-86
1 40931U 15052B   24006.28856983  .00001263  00000-0  84248-4 0  9993
2 40931   6.0004  76.3799 0013541 291.8204  68.0484 14.77555377447321
0 AO-91
1 43017U 17073E   24065.58204186  .00009228  00000-0  59917-3 0  9999
2 43017  97.5951 304.8257 0216577 279.5648  78.1159 14.90947619340212
0 PO-101
1 43678U 18084H   24065.53109063  .00002019  00000-0  19173-3 0  9999
2 43678  98.0556 220.6175 0009711  21.0885 339.0733 14.94671940291430
0 QO-100
1 43700U 18090A   24065.28938258  .00000146  00000-0  00000-0 0  9995
2 43700   0.0268 252.2606 0001013 110.2102 291.0183  1.00270573 19310
0 JO-97
1 43803U 18099AX  24065.12888846  .00008068  00000-0  57200-3 0  9996
2 43803  97.5337 126.2328 0009578 301.2453  58.7835 15.04999430287035
0 RS-44
1 44909U 19096E   24065.36485025  .00000018  00000-0  37035-4 0  9992
2 44909  82.5258 173.7510 0216358 294.0521  63.8076 12.79727043195692
0 IO-117
1 53106U 22080B   24064.84326825 -.00000003  00000-0  00000+0 0  9994
2 53106  70.1320 228.7693 0008270 127.5810 232.5602  6.42557706 38562
0 FO-118
1 54684U 22167C   24065.58662145  .00022662  00000-0  94374-3 0  9997
2 54684  97.5892 208.5842 0011247 148.0706 212.1214 15.23687277 68497
0 HADES-D
1 58567U 23174CY  24065.13655810  .00027328  00000-0  12851-2 0  9995
2 58567  97.4663 141.3658 0014359 232.6251 127.3677 15.19453603 17939
0 CLARKSAT-1
1 58613U 98067WE  24065.58827213  .00199408  00000-0  15417-2 0  9997
2 58613  51.6333 103.2758 0009426   9.0377 351.0788 15.70688892 12255

Keplerian bulletins are transmitted twice weekly from W1AW.  The
next scheduled transmission of these data will be Friday, March 8, 
2024, at 2330z on Baudot and BPSK31.
NNNN





Read previous mail | Read next mail


 22.12.2024 09:47:21lGo back Go up